#timestamp,LO_Frequency,Hit,StdDev 
1625648415.8,286047002.1,N
1625648435.7,286047002.8,N
1625648455.5,286047002.4,N
1625648475.3,286047002.3,N
1625648495.2,286047000.2,N
1625648515.0,286047002.8,N
1625648515.9,286047002.8,N
1625648535.7,286047000.1,N
1625648555.6,286047002.4,N
1625648575.4,286047002.4,N
1625648595.3,286047002.3,N
1625648615.1,286047002.7,N
1625648616.0,286047002.7,N
1625648635.8,286047002.7,N
1625648655.7,286047002.5,N
1625648675.5,286047002.4,N
1625648695.3,286046999.9,N
1625648715.2,286046999.8,N
1625648735.0,286047002.8,N
1625648735.9,286047002.8,N
1625648755.8,286047002.3,N
1625648775.6,286047000.0,N
1625648795.4,286047000.2,N
1625648815.3,286047000.3,N
1625648835.1,286047000.3,N
1625648855.9,286047000.1,N
1625648875.7,286047000.1,N
1625648895.5,286047002.7,N
1625648915.4,286047000.3,N
1625648935.2,286047002.4,N
1625648955.1,286047002.3,N
1625648956.0,286047002.3,N
1625648975.8,286047002.4,N
1625648995.6,286047002.0,N
1625649015.5,286047002.0,N
1625649035.3,286047002.2,N
1625649055.1,286047001.9,N
1625649075.9,286047001.4,N
1625649095.7,286047001.7,N
1625649115.6,286047002.5,N
1625649135.4,286047002.1,N
1625649155.2,286047001.9,N
1625649175.1,286047002.0,N
1625649176.0,286047002.0,N
1625649195.8,286047002.5,N
1625649215.6,286047002.4,N
1625649235.5,286047002.5,N
1625649255.3,286047002.2,N
1625649275.2,286047002.1,N
1625649295.9,286047001.6,N
1625649315.7,286047003.9,Y
1625649335.6,286046999.7,P
1625649355.4,286047000.4,N
1625649375.2,286047000.3,N
1625649395.1,286046999.7,N
1625649396.0,286046999.7,N
1625649415.8,286046999.9,N
1625649435.7,286047000.3,N
1625649455.5,286047002.8,Y
1625649475.3,286047000.5,P
1625649495.2,286047000.4,N
1625649515.0,286047000.3,N
1625649515.9,286047000.3,N
1625649535.8,286047000.1,N
1625649555.6,286047002.8,Y
1625649575.4,286046999.9,P
1625649595.3,286047001.0,P
1625649615.1,286047000.3,N
1625649635.8,286047000.1,N
1625649655.7,286047000.1,N
1625649675.5,286047002.6,Y
1625649695.4,286047002.5,P
1625649715.2,286047002.8,N
1625649735.0,286047002.3,N
1625649735.9,286047002.3,N
1625649755.8,286047002.3,N
1625649775.6,286047002.4,N
1625649795.5,286047002.5,Y
1625649815.3,286046998.6,P
1625649835.1,286047000.8,N
1625649855.9,286047001.2,N
1625649875.7,286047001.0,N
1625649895.5,286047001.2,N
1625649915.4,286047000.3,N
1625649935.2,286047001.0,N
1625649955.1,286047000.0,N
1625649956.0,286047000.0,N
1625649975.8,286047001.6,N
1625649995.6,286047001.6,N
1625650015.5,286047001.6,N
1625650035.3,286047004.3,Y
1625650055.1,286047002.2,P
1625650075.9,286047001.6,N
1625650095.7,286047002.7,P
1625650115.6,286047001.9,N
1625650135.4,286047002.0,Y
1625650155.2,286047002.8,P
1625650175.1,286047002.4,P
1625650176.0,286047002.4,P
1625650195.8,286046999.8,N
1625650215.7,286047002.8,N
1625650235.5,286047002.5,N
1625650255.3,286047001.6,N
1625650275.2,286047003.8,Y
1625650295.0,286047002.7,P
1625650295.9,286047002.7,P
1625650315.7,286047001.6,P
1625650335.6,286047002.1,Y
1625650355.4,286047001.1,P
1625650375.3,286047000.7,N
1625650395.1,286047001.1,N
1625650396.0,286047001.1,N
1625650415.8,286047000.8,N
1625650435.7,286047000.9,N
1625650455.5,286047000.4,N
1625650475.4,286046999.9,N
1625650495.2,286047000.6,N
1625650515.0,286047000.3,N
1625650515.9,286047000.3,N
1625650535.8,286047000.5,N
1625650555.6,286047002.0,Y
1625650575.4,286046999.7,P
1625650595.3,286047002.7,P
1625650615.1,286047002.7,N
1625650635.9,286047002.5,N
1625650655.7,286047001.9,N
1625650675.5,286047002.4,N
1625650695.4,286047002.0,N
1625650715.2,286047001.8,N
1625650735.0,286047002.5,N
1625650735.9,286047002.5,N
1625650755.8,286047002.5,N
1625650775.6,286047001.7,N
1625650795.5,286047004.2,Y
1625650815.3,286047000.2,P
1625650835.1,286046999.9,N
1625650855.9,286047000.2,N
1625650875.7,286047000.1,N
1625650895.6,286047000.1,N
1625650915.4,286047002.3,Y
1625650935.2,286047000.7,P
1625650955.1,286047000.7,P
1625650956.0,286047000.7,P
1625650975.8,286047000.3,N
1625650995.6,286046999.8,N
1625651015.5,286047000.5,N
1625651035.3,286046999.7,N
1625651055.2,286047000.0,N
1625651075.9,286047002.6,Y
1625651095.7,286047001.6,P
1625651115.6,286047002.5,P
1625651135.4,286046999.9,N
1625651155.3,286047000.4,N
1625651175.1,286047000.2,N
1625651176.0,286047000.2,N
1625651195.8,286046999.9,N
1625651215.7,286047000.0,N
1625651235.5,286047001.0,N
1625651255.3,286047000.8,N
1625651275.2,286047000.5,N
1625651295.0,286046999.9,N
1625651295.9,286046999.9,N
1625651315.8,286047000.7,N
1625651335.6,286047001.0,N
1625651355.4,286047001.0,N
1625651375.3,286047000.9,N
1625651395.1,286047000.4,N
1625651415.9,286047001.2,N
1625651435.7,286047001.2,N
1625651455.5,286046998.3,N
1625651475.4,286046998.5,N
1625651495.2,286046998.3,N
1625651515.0,286046998.4,N
1625651515.9,286046998.4,N
1625651535.8,286046999.0,N
1625651555.6,286046999.3,N
1625651575.5,286046998.4,N
1625651595.3,286046999.0,N
1625651615.1,286046998.6,N
1625651635.9,286046999.4,N
1625651655.7,286046999.4,N
1625651675.6,286046999.6,N
1625651695.4,286046998.7,N
1625651715.2,286046999.4,N
1625651735.1,286046999.4,N
1625651736.0,286046999.4,N
1625651755.8,286046999.6,N
1625651775.7,286046998.4,N
1625651795.5,286046996.9,Y
1625651815.3,286046997.0,P
1625651835.2,286046997.2,N
1625651855.0,286046996.9,N
1625651855.9,286046996.9,N
1625651875.8,286046996.9,Y
1625651895.6,286047000.0,P
1625651915.4,286047001.2,N
1625651935.3,286047000.8,N
1625651955.1,286047000.8,N
1625651975.8,286047000.3,N
1625651995.7,286047000.0,N
